Flag for Belgium Weather past 2 weeks in Brussels, Belgium

Now
61 °F

Light rain. Partly cloudy.


Feels Like: 61 °F
Forecast: 52 / 64 °F
Wind: 5 mph from Northwest

Location: Brussels National Airport

Current Time: Sep 1, 2015 at 8:21:28 AM

Latest Report: Sep 1, 2015 at 7:50 AM


Visibility: N/A

Pressure: 29.89 "Hg

Humidity: 88%

Dew point: 57 °F

Location of BrusselsLocation

Historic Weather in Brussels — Graph

°F

Brussels temperature yesterday

Maximum temperature yesterday: 84 °F (at 1:20 PM)
Minimum temperature yesterday: 64 °F (at 6:50 AM)
Average temperature yesterday: 71 °F

Past Weeks' High & Low Weather Summary

 TemperatureHumidityPressure
High86 °F (Aug 30, 2:50 PM)100% (Aug 17, 8:50 PM)30.24 "Hg (Aug 17, 8:50 PM)
Low50 °F (Aug 29, 7:20 AM)32% (Aug 22, 3:50 PM)29.47 "Hg (Aug 24, 2:20 PM)
Average65 °F73%29.95 "Hg
* Reported Aug 17 6:20 AM — Sep 1 6:50 AM, Brussels, Weather by CustomWeather, © 2015

Note: Actual official high and low records may vary slightly from our data, if they occured in-between our weather recording intervals... More about our weather records

Advertising

Brussels weather history for previous 24 hours

 ConditionsComfort  
Time TempWeatherWind HumidityBarometerVisibility
6:50 AM
Tue, Sep 1
61 °FLight rain. Passing clouds.2 mph88%29.89 "HgN/A
5:20 AM61 °FPassing clouds.7 mph88%29.86 "HgN/A
4:50 AM61 °FPassing clouds.6 mph88%29.89 "HgN/A
4:20 AM61 °FPassing clouds.7 mph88%29.86 "HgN/A
3:50 AM61 °FPassing clouds.7 mph94%29.89 "HgN/A
3:20 AM63 °FPassing clouds.6 mph83%29.89 "HgN/A
2:50 AM63 °FPassing clouds.9 mph88%29.89 "HgN/A
2:20 AM63 °FPassing clouds.8 mph83%29.89 "HgN/A
1:50 AM63 °FPassing clouds.7 mph83%29.89 "HgN/A
1:20 AM63 °FPassing clouds.9 mph94%29.89 "HgN/A
12:50 AM63 °FPartly cloudy.12 mph83%29.89 "HgN/A
11:50 PM
Mon, Aug 31
64 °FPassing clouds.14 mph83%29.86 "HgN/A
11:20 PM64 °FPassing clouds.14 mph83%29.86 "HgN/A
10:50 PM66 °FPassing clouds.12 mph94%29.86 "HgN/A
10:20 PM66 °FPassing clouds.10 mph83%29.86 "HgN/A
9:50 PM68 °FPartly cloudy.13 mph83%29.86 "HgN/A
9:20 PM68 °FPartly sunny.8 mph94%29.83 "HgN/A
8:50 PM68 °FPartly sunny.8 mph88%29.83 "HgN/A
8:20 PM68 °FPartly sunny.9 mph88%29.83 "HgN/A
7:50 PM68 °FPartly sunny.10 mph94%29.83 "HgN/A
7:20 PM68 °FPassing clouds.9 mph88%29.83 "HgN/A
6:50 PM68 °FPassing clouds.8 mph94%29.83 "HgN/A
6:20 PM68 °FRain showers. Scattered clouds.12 mph83%29.83 "Hg5 mi
5:50 PM70 °FSprinkles. Scattered clouds.8 mph78%29.83 "HgN/A
5:20 PM70 °FScattered showers. Broken clouds.6 mph73%29.83 "HgN/A
4:50 PM68 °FScattered clouds.13 mph73%29.83 "HgN/A
4:20 PM70 °FSprinkles. Scattered clouds.16 mph64%29.83 "HgN/A
3:50 PM73 °FScattered clouds.28 mph57%29.83 "HgN/A
3:20 PM82 °FPassing clouds.12 mph51%29.80 "HgN/A
2:50 PM84 °FPassing clouds.14 mph45%29.80 "HgN/A
2:20 PM84 °FPassing clouds.10 mph48%29.80 "HgN/A
1:50 PM84 °FSunny.9 mph45%29.80 "Hg10 mi
1:20 PM84 °FSunny.9 mph45%29.80 "Hg10 mi
12:50 PM82 °FPassing clouds.6 mph51%29.80 "HgN/A
12:20 PM81 °FPassing clouds.7 mph51%29.80 "HgN/A
11:50 AM81 °FPassing clouds.7 mph51%29.83 "HgN/A
11:20 AM79 °FPassing clouds.5 mph58%29.83 "HgN/A
10:50 AM77 °FPassing clouds.6 mph61%29.83 "HgN/A
10:20 AM75 °FPassing clouds.8 mph65%29.83 "HgN/A
9:50 AM72 °FPassing clouds.5 mph78%29.83 "HgN/A
9:20 AM70 °FPassing clouds.5 mph78%29.83 "HgN/A
8:50 AM68 °FSunny.5 mph83%29.86 "Hg10 mi
8:20 AM68 °FSunny.2 mph78%29.86 "Hg10 mi
Weather by CustomWeather, © 2015

See weather overviewHow to use our weather pages